EN

Hourly Weather Novye Karamaly

Today, 1 October, Thursday

Time Temperature Precipitation Wind Pressure Humidity
00:00 +12°C° 0 mm 1 mps 760 mmHg 87%
01:00 +11°C° 0 mm 1 mps 760 mmHg 88%
02:00 +11°C° 0 mm 1 mps 760 mmHg 88%
03:00 +10°C° 0 mm 0 mps 760 mmHg 88%
04:00 +9°C° 0 mm 0 mps 761 mmHg 87%
05:00 +9°C° 0 mm 0 mps 761 mmHg 87%
06:00 +9°C° 0 mm 0 mps 761 mmHg 87%
07:00 +9°C° 0 mm 0 mps 761 mmHg 88%
08:00 +11°C° 0 mm 0 mps 760 mmHg 82%
09:00 +12°C° 0 mm 0 mps 760 mmHg 76%
10:00 +14°C° 0 mm 0 mps 760 mmHg 70%
11:00 +15°C° 0 mm 0 mps 760 mmHg 66%
12:00 +16°C° 0 mm 0 mps 760 mmHg 62%
13:00 +17°C° 0 mm 0 mps 760 mmHg 58%
14:00 +17°C° 0 mm 0 mps 760 mmHg 57%
15:00 +17°C° 0 mm 0 mps 760 mmHg 57%
16:00 +17°C° 0 mm 0 mps 760 mmHg 57%
17:00 +18°C° 0 mm 1 mps 759 mmHg 64%
18:00 +15°C° 0 mm 1 mps 759 mmHg 70%
19:00 +14°C° 0 mm 1 mps 759 mmHg 77%
20:00 +13°C° 0 mm 1 mps 759 mmHg 79%
21:00 +13°C° 0 mm 1 mps 760 mmHg 82%
22:00 +11°C° 0 mm 0 mps 760 mmHg 84%
23:00 +11°C° 0 mm 0 mps 760 mmHg 85%

Tomorrow, 2 October, Friday

Time Temperature Precipitation Wind Pressure Humidity
00:00 +11°C° 0 mm 0 mps 759 mmHg 86%
01:00 +10°C° 0 mm 0 mps 759 mmHg 86%
02:00 +10°C° 0 mm 0 mps 759 mmHg 87%
03:00 +11°C° 0 mm 1 mps 760 mmHg 88%
04:00 +10°C° 0 mm 1 mps 760 mmHg 88%
05:00 +10°C° 0 mm 1 mps 760 mmHg 88%
06:00 +10°C° 0 mm 1 mps 760 mmHg 89%
07:00 +10°C° 0 mm 1 mps 759 mmHg 89%
08:00 +11°C° 0 mm 1 mps 760 mmHg 83%
09:00 +13°C° 0 mm 1 mps 760 mmHg 77%
10:00 +15°C° 0 mm 1 mps 760 mmHg 71%
11:00 +16°C° 0 mm 1 mps 759 mmHg 67%
12:00 +16°C° 0 mm 1 mps 759 mmHg 64%
13:00 +18°C° 0 mm 1 mps 759 mmHg 61%
14:00 +19°C° 0 mm 1 mps 758 mmHg 60%
15:00 +19°C° 0 mm 1 mps 758 mmHg 59%
16:00 +19°C° 0 mm 1 mps 758 mmHg 58%
17:00 +16°C° 0 mm 1 mps 758 mmHg 64%
18:00 +15°C° 0 mm 1 mps 758 mmHg 69%
19:00 +13°C° 0 mm 1 mps 758 mmHg 75%
20:00 +12°C° 0 mm 0 mps 758 mmHg 77%
21:00 +11°C° 0 mm 0 mps 758 mmHg 79%
22:00 +11°C° 0 mm 0 mps 758 mmHg 80%
23:00 +11°C° 0 mm 0 mps 758 mmHg 81%

Day after tomorrow, 3 October, Saturday

Time Temperature Precipitation Wind Pressure Humidity
00:00 +10°C° 0 mm 0 mps 758 mmHg 82%
01:00 +11°C° 0 mm 1 mps 758 mmHg 83%
02:00 +11°C° 0 mm 1 mps 758 mmHg 84%
03:00 +10°C° 0 mm 1 mps 758 mmHg 85%
04:00 +10°C° 0 mm 1 mps 758 mmHg 87%
05:00 +10°C° 0 mm 1 mps 757 mmHg 88%
06:00 +10°C° 0 mm 1 mps 757 mmHg 89%
07:00 +10°C° 0 mm 1 mps 757 mmHg 90%
08:00 +11°C° 0 mm 1 mps 757 mmHg 86%
09:00 +13°C° 0 mm 1 mps 757 mmHg 81%
10:00 +14°C° 0 mm 2 mps 757 mmHg 77%
11:00 +15°C° 0 mm 2 mps 757 mmHg 73%
12:00 +16°C° 0 mm 2 mps 757 mmHg 69%
13:00 +17°C° 0 mm 3 mps 756 mmHg 65%
14:00 +17°C° 0 mm 3 mps 756 mmHg 65%
15:00 +17°C° 0 mm 3 mps 756 mmHg 64%
16:00 +17°C° 0 mm 3 mps 756 mmHg 63%
17:00 +16°C° 0 mm 3 mps 756 mmHg 69%
18:00 +13°C° 0 mm 3 mps 756 mmHg 75%
19:00 +13°C° 0 mm 2 mps 757 mmHg 81%
20:00 +11°C° 0 mm 3 mps 757 mmHg 83%
21:00 +11°C° 0 mm 3 mps 757 mmHg 84%
22:00 +10°C° 0 mm 3 mps 757 mmHg 86%
23:00 +10°C° 0 mm 3 mps 757 mmHg 82%

4 October, Sunday

Time Temperature Precipitation Wind Pressure Humidity
00:00 +9°C° 0 mm 3 mps 757 mmHg 78%
01:00 +9°C° 0 mm 3 mps 757 mmHg 74%
02:00 +8°C° 0 mm 3 mps 758 mmHg 78%
03:00 +7°C° 0 mm 3 mps 758 mmHg 81%
04:00 +5°C° 0 mm 3 mps 758 mmHg 85%
05:00 +4°C° 0 mm 3 mps 758 mmHg 84%
06:00 +4°C° 0 mm 3 mps 758 mmHg 83%
07:00 +3°C° 0 mm 3 mps 759 mmHg 83%
08:00 +4°C° 0 mm 4 mps 759 mmHg 79%
09:00 +5°C° 0 mm 4 mps 759 mmHg 75%
10:00 +6°C° 0 mm 4 mps 759 mmHg 71%
11:00 +7°C° 0 mm 4 mps 759 mmHg 68%
12:00 +8°C° 0 mm 4 mps 759 mmHg 64%
13:00 +10°C° 0 mm 4 mps 759 mmHg 61%
14:00 +10°C° 0 mm 4 mps 760 mmHg 60%
15:00 +10°C° 0 mm 4 mps 760 mmHg 59%
16:00 +10°C° 0 mm 4 mps 760 mmHg 58%
17:00 +8°C° 0 mm 4 mps 760 mmHg 61%
18:00 +7°C° 0 mm 3 mps 760 mmHg 65%
19:00 +5°C° 0 mm 3 mps 760 mmHg 68%
20:00 +6°C° 0 mm 2 mps 760 mmHg 71%
21:00 +5°C° 0 mm 2 mps 761 mmHg 74%
22:00 +6°C° 0 mm 1 mps 761 mmHg 77%
23:00 +6°C° 0 mm 1 mps 761 mmHg 77%

5 October, Monday

Time Temperature Precipitation Wind Pressure Humidity
00:00 +5°C° 0 mm 1 mps 761 mmHg 78%
01:00 +5°C° 0 mm 1 mps 762 mmHg 79%
02:00 +5°C° 0 mm 1 mps 762 mmHg 77%
03:00 +5°C° 0 mm 1 mps 762 mmHg 76%
04:00 +5°C° 0 mm 1 mps 762 mmHg 75%
05:00 +5°C° 0 mm 1 mps 762 mmHg 74%
06:00 +3°C° 0 mm 0 mps 762 mmHg 73%
07:00 +3°C° 0 mm 0 mps 763 mmHg 73%
08:00 +6°C° 0 mm 1 mps 763 mmHg 67%
09:00 +7°C° 0 mm 1 mps 763 mmHg 61%
10:00 +8°C° 0 mm 1 mps 762 mmHg 55%
11:00 +8°C° 0 mm 2 mps 762 mmHg 54%
12:00 +9°C° 0 mm 2 mps 762 mmHg 52%
13:00 +10°C° 0 mm 2 mps 762 mmHg 51%
14:00 +10°C° 0 mm 2 mps 762 mmHg 52%
15:00 +10°C° 0 mm 2 mps 762 mmHg 53%
16:00 +10°C° 0 mm 2 mps 761 mmHg 54%
17:00 +9°C° 0 mm 2 mps 761 mmHg 59%
18:00 +9°C° 0 mm 1 mps 761 mmHg 64%
19:00 +6°C° 0 mm 0 mps 761 mmHg 69%
20:00 +6°C° 0 mm 0 mps 761 mmHg 70%
21:00 +6°C° 0 mm 0 mps 761 mmHg 72%
22:00 +5°C° 0 mm 0 mps 761 mmHg 74%
23:00 +5°C° 0 mm 0 mps 761 mmHg 75%

6 October, Tuesday

Time Temperature Precipitation Wind Pressure Humidity
00:00 +6°C° 0 mm 1 mps 761 mmHg 76%
01:00 +5°C° 0 mm 1 mps 761 mmHg 78%
02:00 +5°C° 0 mm 1 mps 761 mmHg 79%
03:00 +4°C° 0 mm 2 mps 761 mmHg 80%
04:00 +3°C° 0 mm 2 mps 760 mmHg 82%
05:00 +3°C° 0 mm 2 mps 760 mmHg 82%
06:00 +4°C° 0 mm 2 mps 760 mmHg 82%
07:00 +4°C° 0 mm 2 mps 760 mmHg 82%
08:00 +5°C° 0 mm 2 mps 760 mmHg 77%
09:00 +5°C° 0 mm 3 mps 759 mmHg 72%
10:00 +8°C° 0 mm 3 mps 759 mmHg 67%
11:00 +8°C° 0 mm 4 mps 759 mmHg 63%
12:00 +10°C° 0 mm 4 mps 758 mmHg 59%
13:00 +10°C° 0 mm 5 mps 758 mmHg 56%
14:00 +10°C° 0 mm 5 mps 758 mmHg 56%
15:00 +10°C° 0 mm 5 mps 757 mmHg 56%
16:00 +10°C° 0 mm 5 mps 757 mmHg 57%
17:00 +11°C° 0 mm 4 mps 756 mmHg 60%
18:00 +10°C° 0 mm 4 mps 756 mmHg 63%
19:00 +8°C° 0 mm 4 mps 756 mmHg 65%
20:00 +8°C° 0.2 mm 4 mps 755 mmHg 69%
21:00 +8°C° 0.2 mm 5 mps 755 mmHg 73%
22:00 +7°C° 0.2 mm 5 mps 754 mmHg 76%
23:00 +7°C° 0.6 mm 5 mps 754 mmHg 80%
Show more

We Need Your Consent

Meteoprog and our Service Providers may store and access personal data such as cookies, device identifiers or other similar technologies on your device and process such data to personalise content and ads, as well as provide social media features and to analyse the traffic.

  • Store and/or access information on your device

    Cookies, device identifiers or other information can be stored or accessed on your device for the purposes indicated above.

  • Personalised ads and content, ad and content measurement, audience insights, and products development

    Ads and content can be personalised based on a profile. More data can be added to better personalise ads and content. Ad and content performance can be measured. Insights about the audience who saw the ads and content can be derived. Such data can be used to develop or improve user’s experience, systems and software.

By clicking ‘I Agree’ you will allow the use of indicated cookies, device identifiers, web beacons or other similar technologies. Your settings can be changed in the browser on your device.

For certain purposes, legitimate interests may be relied on, rather than consent. You can read more about this in our Privacy and Cookie Policy.